EW0915 Weather Reports


time (UTC)temp
F
wind
direction
speed
knots
gust
knots
rain 1hr
in
rain 24hr
in
rain mn
in
humidity
%
barometer
mb
20260508011018 50 0.0 1.7 0.00 0.00 0.00 77 1017.4
20260508010016 50 0.0 3.5 0.00 0.00 0.00 76 1017.4
20260508005016 50 0.0 1.7 0.00 0.00 0.00 76 1017.5
20260508004018 50 90 0.9 4.3 0.00 0.00 0.00 76 1017.6
20260508003016 50 0.0 1.7 0.00 0.00 0.00 76 1017.7
20260508002016 50 90 0.9 5.2 0.00 0.00 0.00 76 1017.6
20260508001016 50 90 0.9 3.5 0.00 0.00 0.00 76 1017.6
20260508000016 50 90 0.9 5.2 0.00 0.00 0.00 75 1017.6
20260507235017 50 90 0.9 3.5 0.00 0.00 0.00 75 1017.6
20260507234017 50 90 0.9 7.0 0.00 0.00 0.00 75 1017.5
20260507233016 51 90 1.7 7.0 0.00 0.00 0.00 74 1017.4
20260507232039 51 90 2.6 7.8 0.00 0.00 0.00 74 1017.2
20260507231016 51 90 2.6 10.4 0.00 0.00 0.00 75 1017.1
20260507230038 51 90 1.7 7.0 0.00 0.00 0.00 75 1017.2
20260507225016 51 90 2.6 8.7 0.00 0.00 0.00 76 1017.2
20260507224017 51 90 1.7 9.6 0.00 0.00 0.00 76 1017.3
20260507223016 51 90 2.6 9.6 0.00 0.00 0.00 76 1017.3
20260507222016 51 90 1.7 7.8 0.00 0.00 0.00 76 1017.3
20260507221036 51 90 2.6 9.6 0.00 0.00 0.00 76 1017.2
20260507220017 51 90 2.6 7.8 0.00 0.00 0.00 76 1017.1
20260507215017 51 90 1.7 6.1 0.00 0.00 0.00 76 1017.1
20260507214016 51 90 1.7 7.0 0.00 0.00 0.00 76 1017.1
20260507213016 51 90 1.7 7.8 0.00 0.00 0.00 75 1017.1
20260507212016 51 90 1.7 6.1 0.00 0.00 0.00 75 1017.1
20260507211017 51 90 0.9 7.0 0.00 0.00 0.00 75 1017.1
20260507210016 52 90 1.7 5.2 0.00 0.00 0.00 74 1017.1
20260507205056 52 90 1.7 6.1 0.00 0.00 0.00 74 1017.1
20260507204016 52 90 1.7 7.0 0.00 0.00 0.00 73 1017.0
20260507203016 53 90 1.7 7.0 0.00 0.00 0.00 73 1017.0
20260507202016 53 90 2.6 7.8 0.00 0.00 0.00 73 1016.9
20260507201036 53 90 2.6 10.4 0.00 0.00 0.00 73 1016.5
20260507200036 53 90 1.7 7.8 0.00 0.00 0.00 73 1016.5
20260507195016 54 90 2.6 8.7 0.00 0.00 0.00 72 1016.5
20260507194015 54 90 1.7 7.0 0.00 0.00 0.00 72 1016.4
20260507193036 54 90 1.7 6.1 0.00 0.00 0.00 71 1016.4
20260507192036 54 90 0.9 7.0 0.00 0.00 0.00 71 1016.5
20260507191016 54 90 0.9 5.2 0.00 0.00 0.00 71 1016.5
20260507190037 54 90 1.7 7.8 0.00 0.00 0.00 71 1016.6
20260507185017 55 90 1.7 6.1 0.00 0.00 0.00 70 1016.8
20260507184015 55 90 1.7 7.0 0.00 0.00 0.00 70 1016.7
20260507183016 55 90 2.6 7.8 0.00 0.00 0.00 69 1016.7
20260507182017 55 90 1.7 7.0 0.00 0.00 0.00 69 1016.6
20260507181035 55 90 2.6 7.8 0.00 0.00 0.00 68 1016.4
20260507180037 55 90 1.7 7.0 0.00 0.00 0.00 68 1016.5
20260507175016 56 90 2.6 9.6 0.00 0.00 0.00 67 1016.5
20260507174016 56 90 2.6 7.8 0.00 0.00 0.00 66 1016.7
20260507173016 56 90 2.6 7.0 0.00 0.00 0.00 64 1016.6
20260507172037 56 90 2.6 7.0 0.00 0.00 0.00 62 1016.5
20260507171017 57 90 3.5 10.4 0.00 0.00 0.00 61 1016.7
20260507170035 57 90 3.5 9.6 0.00 0.00 0.00 60 1016.6
20260507165015 57 90 2.6 8.7 0.00 0.00 0.00 59 1016.7
20260507164015 57 90 3.5 9.6 0.00 0.00 0.00 58 1016.7
20260507163017 58 113 2.6 10.4 0.00 0.00 0.00 55 1016.6
20260507162017 58 90 2.6 8.7 0.00 0.00 0.00 58 1016.7
20260507161017 58 90 2.6 8.7 0.00 0.00 0.00 58 1016.8
20260507160015 58 90 3.5 9.6 0.00 0.00 0.00 62 1016.8
20260507155015 58 90 3.5 12.2 0.00 0.00 0.00 61 1016.8
20260507154019 58 113 5.2 14.8 0.00 0.00 0.00 56 1016.7
20260507153017 57 113 2.6 14.8 0.00 0.00 0.00 58 1016.7
20260507152019 55 113 1.7 6.1 0.00 0.00 0.00 66 1016.7
20260507151017 53 0.0 3.5 0.00 0.00 0.00 75 1016.9
20260507150017 53 90 0.9 4.3 0.00 0.00 0.00 76 1017.0
20260507145015 53 90 1.7 6.1 0.00 0.00 0.00 76 1017.1
20260507144019 53 90 1.7 4.3 0.00 0.00 0.00 76 1017.1
20260507143017 53 90 1.7 6.1 0.00 0.00 0.00 76 1017.1
20260507142018 53 90 2.6 9.6 0.00 0.00 0.00 76 1017.2
20260507141037 54 90 1.7 7.0 0.00 0.00 0.00 75 1017.3
20260507140017 56 113 2.6 10.4 0.00 0.00 0.00 68 1017.3
20260507135018 56 90 1.7 7.8 0.00 0.00 0.00 69 1017.2
20260507134018 56 90 1.7 8.7 0.00 0.00 0.00 69 1017.2
20260507133017 56 90 1.7 7.8 0.00 0.00 0.00 69 1017.3
20260507132037 56 90 3.5 9.6 0.00 0.00 0.00 69 1017.4
20260507131018 56 90 2.6 7.8 0.00 0.00 0.00 69 1017.5
20260507130017 56 90 3.5 12.2 0.00 0.00 0.00 69 1017.5
20260507125057 55 90 3.5 8.7 0.00 0.00 0.00 70 1017.3
20260507124039 55 90 3.5 9.6 0.00 0.00 0.00 71 1017.5
20260507123019 55 90 4.3 13.0 0.00 0.00 0.00 71 1017.5
20260507122017 55 90 3.5 10.4 0.00 0.00 0.00 71 1017.5
20260507121017 55 90 4.3 13.9 0.00 0.00 0.00 71 1017.4
20260507120017 55 90 4.3 13.0 0.00 0.00 0.00 71 1017.3
20260507115037 55 90 3.5 11.3 0.00 0.00 0.00 71 1017.4
20260507114119 54 113 4.3 13.9 0.00 0.00 0.00 71 1017.5
20260507113037 54 90 4.3 13.0 0.00 0.00 0.00 72 1017.5
20260507112017 54 90 3.5 11.3 0.00 0.00 0.00 72 1017.6
20260507111018 53 90 3.5 13.9 0.00 0.00 0.00 74 1017.5
20260507110018 53 90 3.5 11.3 0.00 0.00 0.00 74 1017.7
20260507105017 52 90 2.6 8.7 0.00 0.00 0.00 74 1017.6
20260507104018 52 90 3.5 9.6 0.00 0.00 0.00 74 1017.6
20260507103017 52 90 3.5 11.3 0.00 0.00 0.00 74 1017.5
20260507102018 52 90 3.5 10.4 0.00 0.00 0.00 74 1017.5
20260507101017 51 90 2.6 10.4 0.00 0.00 0.00 75 1017.6
20260507100038 51 90 2.6 13.0 0.00 0.00 0.00 75 1017.6
20260507095022 51 90 3.5 10.4 0.00 0.00 0.00 75 1017.5
20260507094058 51 113 2.6 9.6 0.00 0.00 0.00 74 1017.6
20260507093017 51 90 3.5 9.6 0.00 0.00 0.00 75 1017.7
20260507092017 50 90 3.5 9.6 0.00 0.00 0.00 75 1017.7
20260507091018 50 90 2.6 8.7 0.00 0.00 0.00 75 1017.7
20260507090018 50 90 4.3 13.9 0.00 0.00 0.00 74 1017.5
20260507085018 51 90 4.3 13.9 0.00 0.00 0.00 74 1017.5
20260507084016 51 90 3.5 9.6 0.00 0.00 0.00 74 1017.3
20260507083017 51 90 3.5 8.7 0.00 0.00 0.00 74 1017.4
20260507082016 51 90 2.6 9.6 0.00 0.00 0.00 74 1017.5
20260507081017 51 90 2.6 9.6 0.00 0.00 0.00 74 1017.4
20260507080037 50 90 2.6 10.4 0.00 0.00 0.00 75 1017.5
20260507075017 50 90 3.5 10.4 0.00 0.00 0.00 75 1017.4
20260507074017 49 90 2.6 10.4 0.00 0.00 0.00 75 1017.6
20260507073036 49 90 1.7 7.0 0.00 0.00 0.00 75 1017.5
20260507072016 49 113 2.6 9.6 0.00 0.00 0.00 75 1017.4
20260507071017 49 113 0.9 9.6 0.00 0.00 0.00 76 1017.4
20260507070018 48 90 0.9 7.0 0.00 0.00 0.00 77 1017.5
20260507065016 47 0.0 1.7 0.00 0.00 0.00 78 1017.4
20260507064018 46 0.0 1.7 0.00 0.00 0.00 78 1017.4
20260507063017 46 0.0 3.5 0.00 0.00 0.00 78 1017.3
20260507062036 45 0.0 3.5 0.00 0.00 0.00 79 1017.4
20260507061018 44 23 0.9 3.5 0.00 0.00 0.00 79 1017.4
20260507060016 44 0.0 1.7 0.00 0.00 0.00 78 1017.5
20260507055016 44 0.0 3.5 0.00 0.00 0.00 78 1017.5
20260507054120 44 0 0.9 3.5 0.00 0.00 0.00 78 1017.5
20260507053018 43 0.0 3.5 0.00 0.00 0.00 79 1017.5
20260507052018 42 0.0 2.6 0.00 0.00 0.00 78 1017.6
20260507051100 42 0.0 1.7 0.00 0.00 0.00 78 1017.8
20260507050018 42 0.0 1.7 0.00 0.00 0.00 78 1017.8
20260507045019 42 0.0 0.9 0.00 0.00 0.00 77 1017.7
20260507044038 43 0.0 1.7 0.00 0.00 0.00 77 1017.8
20260507043018 43 0.0 0.9 0.00 0.00 0.00 77 1017.7
20260507042016 43 0.0 0.9 0.00 0.00 0.00 76 1017.6
20260507041016 43 0.0 0.9 0.00 0.00 0.00 76 1017.8
20260507040016 44 0.0 0.9 0.00 0.00 0.00 76 1017.9
20260507035018 44 0.0 0.0 0.00 0.00 0.00 76 1018.0
20260507034016 44 0.0 0.0 0.00 0.00 0.00 75 1018.0
20260507033019 45 0.0 0.9 0.00 0.00 0.00 75 1018.0
20260507032038 45 0.0 0.9 0.00 0.00 0.00 74 1018.0
20260507031016 45 0.0 0.9 0.00 0.00 0.00 74 1018.1
20260507030018 45 0.0 0.9 0.00 0.00 0.00 74 1018.1
20260507025016 45 0.0 0.9 0.00 0.00 0.00 74 1018.2
20260507024016 45 0.0 0.9 0.00 0.00 0.00 73 1018.2
20260507023017 45 0.0 0.9 0.00 0.00 0.00 73 1018.2
20260507022017 45 0.0 0.9 0.00 0.00 0.00 73 1018.2
20260507021016 45 0.0 0.9 0.00 0.00 0.00 74 1018.2
20260507020038 45 0.0 1.7 0.00 0.00 0.00 73 1018.2
20260507015016 45 0.0 0.9 0.00 0.00 0.00 73 1018.0
20260507014016 45 0.0 0.9 0.00 0.00 0.00 72 1018.1
20260507013017 46 0.0 0.9 0.00 0.00 0.00 72 1018.2
20260507012017 46 0 0.9 3.5 0.00 0.00 0.00 71 1018.1